Weather History for Orr, MN

Change the Weather History Date:

Thursday, November 8, 2012

  Actual Average Record
Temperature  
Mean Temperature 38 °F -  
Max Temperature 42 °F 35 °F 69 °F (1999)
Min Temperature 33 °F 22 °F -9 °F (2003)
Degree Days  
Heating Degree Days 28    
Moisture  
Dew Point 32 °F    
Average Humidity 81    
Maximum Humidity 87    
Minimum Humidity 70    
Precipitation  
Precipitation 0.00 in - - ()
Sea Level Pressure  
Sea Level Pressure 29.91 in    
Wind  
Wind Speed 7 mph (SW)    
Max Wind Speed 15 mph    
Max Gust Speed 22 mph    
Visibility 10 miles    
Events Rain    
Averages and records for this station are not official NWS values.
T = Trace of Precipitation, MM = Missing Value Source: NWS Daily Summary

Daily Weather History Graph

Daily Weather History Graph

Search for Another Location

Airport:

Trip Planner

Search our weather history database for the weather conditions in past years. The results will help you decide how hot, cold, wet, or windy it might be!

Date:

Astronomy

Nov. 08, 2012 Rise Set
Actual Time 7:07 AM CST 4:41 PM CST
Civil Twilight 6:34 AM CST 5:15 PM CST
Nautical Twilight 5:57 AM CST 5:52 PM CST
Astronomical Twilight 5:21 AM CST 6:28 PM CST
Moon 12:37 AM CST (11/8) 1:46 PM CST (11/8)
Length of Visible Light 10h 40m
Length of Day
9h 33m
Waning Crescent, 32% of the Moon is Illuminated
Nov 8
Waning Crescent
Nov 13
New
Nov 20
First Quarter
Nov 28
Full
Dec 6
Last Quarter

Hourly Weather History & Observations

Time (CST) Temp. Windchill Dew Point Humidity Pressure Visibility Wind Dir Wind Speed Gust Speed Precip Events Conditions
12:13 AM 35.6 °F 30.7 °F 32.0 °F 87% 29.92 in 10.0 mi SSE 5.8 mph - N/A   Overcast
12:33 AM 35.6 °F 28.6 °F 32.0 °F 87% 29.91 in 10.0 mi SSE 9.2 mph - N/A   Overcast
12:53 AM 35.6 °F 29.2 °F 32.0 °F 87% 29.93 in 10.0 mi South 8.1 mph - N/A   Mostly Cloudy
1:13 AM 35.6 °F 27.5 °F 32.0 °F 87% 29.92 in 10.0 mi South 11.5 mph - N/A   Scattered Clouds
1:33 AM 35.6 °F 29.2 °F 32.0 °F 87% 29.92 in 10.0 mi SE 8.1 mph - N/A   Mostly Cloudy
1:53 AM 35.6 °F 28.6 °F 32.0 °F 87% 29.89 in 10.0 mi SE 9.2 mph - N/A   Drizzle
2:13 AM 35.6 °F 28.6 °F 32.0 °F 87% 29.90 in 10.0 mi SSE 9.2 mph - N/A   Scattered Clouds
2:33 AM 35.6 °F 28.0 °F 32.0 °F 87% 29.89 in 10.0 mi SSE 10.4 mph - N/A   Clear
2:53 AM 35.6 °F 28.0 °F 32.0 °F 87% 29.88 in 10.0 mi SSE 10.4 mph - N/A   Scattered Clouds
3:13 AM 35.6 °F 27.5 °F 32.0 °F 87% 29.87 in 10.0 mi SSE 11.5 mph 18.4 mph N/A   Scattered Clouds
3:33 AM 37.4 °F 29.3 °F 32.0 °F 81% 29.85 in 10.0 mi SSE 12.7 mph 18.4 mph N/A   Scattered Clouds
3:53 AM 37.4 °F 29.8 °F 32.0 °F 81% 29.84 in 10.0 mi South 11.5 mph 19.6 mph N/A   Scattered Clouds
4:13 AM 37.4 °F 29.8 °F 32.0 °F 81% 29.84 in 10.0 mi South 11.5 mph 20.7 mph N/A   Mostly Cloudy
4:33 AM 37.4 °F 28.5 °F 30.2 °F 75% 29.83 in 10.0 mi South 15.0 mph 18.4 mph N/A Rain Light Rain
5:13 AM 37.4 °F 28.9 °F 30.2 °F 75% 29.82 in 10.0 mi South 13.8 mph 21.9 mph N/A   Scattered Clouds
5:28 AM 37.4 °F 29.8 °F 30.2 °F 75% 29.82 in 10.0 mi South 11.5 mph 17.3 mph N/A   Mostly Cloudy
5:53 AM 35.6 °F - 30.2 °F 81% 29.82 in - Calm Calm 17.3 mph N/A   Scattered Clouds
6:13 AM 35.6 °F 28.6 °F 30.2 °F 81% 29.81 in 10.0 mi South 9.2 mph 17.3 mph N/A   Clear
6:33 AM 35.6 °F 29.9 °F 30.2 °F 81% 29.82 in 10.0 mi South 6.9 mph - N/A   Clear
6:53 AM 35.6 °F 29.9 °F 30.2 °F 81% 29.82 in 10.0 mi South 6.9 mph - N/A   Clear
7:13 AM 35.6 °F - 30.2 °F 81% 29.83 in 10.0 mi North - - N/A   Clear
7:33 AM 35.6 °F 29.2 °F 30.2 °F 81% 29.84 in 10.0 mi South 8.1 mph - N/A   Clear
7:53 AM 35.6 °F 28.6 °F 30.2 °F 81% 29.84 in 10.0 mi South 9.2 mph - N/A   Clear
8:13 AM 35.6 °F 28.6 °F 30.2 °F 81% 29.84 in 10.0 mi South 9.2 mph - N/A   Clear
8:16 AM 35.6 °F 27.1 °F 30.2 °F 81% 29.84 in 10.0 mi South 12.7 mph 18.4 mph N/A   Clear
8:53 AM 35.6 °F 27.1 °F 30.2 °F 81% 29.81 in 10.0 mi SSE 12.7 mph 18.4 mph N/A   Scattered Clouds
9:13 AM 35.6 °F - 30.2 °F 81% 29.78 in 7.0 mi Calm Calm - N/A Rain Light Rain
9:34 AM 37.4 °F - 33.8 °F 87% 29.85 in 10.0 mi North - - N/A   Clear
9:53 AM 39.2 °F - 33.8 °F 81% 29.84 in 10.0 mi Calm Calm - N/A   Scattered Clouds
10:13 AM 39.2 °F 33.6 °F 32.0 °F 75% 29.83 in 10.0 mi SSW 8.1 mph - N/A   Scattered Clouds
10:33 AM 41.0 °F 35.2 °F 32.0 °F 70% 29.84 in 10.0 mi SSW 9.2 mph - N/A   Scattered Clouds
10:53 AM 41.0 °F 34.7 °F 32.0 °F 70% 29.84 in 10.0 mi SSW 10.4 mph - N/A   Overcast
11:13 AM 41.0 °F 38.0 °F 32.0 °F 70% 29.84 in 10.0 mi SW 4.6 mph - N/A   Overcast
11:33 AM 42.8 °F 39.3 °F 33.8 °F 70% 29.84 in 10.0 mi West 5.8 mph 17.3 mph N/A   Mostly Cloudy
11:53 AM 42.8 °F 40.1 °F 33.8 °F 70% 29.84 in 10.0 mi WSW 4.6 mph - N/A   Mostly Cloudy
12:13 PM 42.8 °F 38.0 °F 33.8 °F 70% 29.84 in 10.0 mi West 8.1 mph - N/A   Overcast
12:53 PM 42.8 °F 37.5 °F 33.8 °F 70% 29.85 in 10.0 mi West 9.2 mph 16.1 mph N/A   Overcast
1:13 PM 41.0 °F 34.7 °F 33.8 °F 76% 29.85 in 10.0 mi West 10.4 mph - N/A   Overcast
1:33 PM 41.0 °F 36.4 °F 33.8 °F 76% 29.86 in 10.0 mi WNW 6.9 mph - N/A   Overcast
1:53 PM 41.0 °F 34.7 °F 33.8 °F 76% 29.87 in 10.0 mi WNW 10.4 mph - N/A   Overcast
2:13 PM 39.2 °F 35.0 °F 33.8 °F 81% 29.88 in 10.0 mi WNW 5.8 mph - N/A   Overcast
2:33 PM 39.2 °F 32.5 °F 33.8 °F 81% 29.89 in 10.0 mi WNW 10.4 mph - N/A   Overcast
2:53 PM 39.2 °F 33.0 °F 33.8 °F 81% 29.90 in 10.0 mi WNW 9.2 mph - N/A   Mostly Cloudy
3:13 PM 39.2 °F 35.9 °F 33.8 °F 81% 29.91 in 10.0 mi WNW 4.6 mph - N/A   Overcast
3:33 PM 39.2 °F 34.2 °F 33.8 °F 81% 29.92 in 10.0 mi NW 6.9 mph - N/A   Overcast
3:53 PM 39.2 °F 35.9 °F 33.8 °F 81% 29.93 in 10.0 mi WNW 4.6 mph - N/A   Mostly Cloudy
4:13 PM 39.2 °F 35.9 °F 33.8 °F 81% 29.94 in 10.0 mi WNW 4.6 mph - N/A   Mostly Cloudy
4:33 PM 39.2 °F 35.9 °F 33.8 °F 81% 29.94 in 10.0 mi NW 4.6 mph - N/A   Mostly Cloudy
4:53 PM 39.2 °F 37.0 °F 35.6 °F 87% 29.95 in 7.0 mi NW 3.5 mph - N/A   Mostly Cloudy
5:13 PM 39.2 °F 35.0 °F 35.6 °F 87% 29.96 in 7.0 mi NW 5.8 mph - N/A   Scattered Clouds
5:33 PM 39.2 °F 35.9 °F 35.6 °F 87% 29.97 in 7.0 mi NW 4.6 mph - N/A   Scattered Clouds
5:53 PM 39.2 °F 35.0 °F 35.6 °F 87% 29.98 in 10.0 mi NW 5.8 mph - N/A   Mostly Cloudy
6:13 PM 39.2 °F 37.0 °F 35.6 °F 87% 29.99 in 10.0 mi NW 3.5 mph - N/A   Overcast
6:33 PM 39.2 °F - 33.8 °F 81% 30.00 in 10.0 mi Calm Calm - N/A   Overcast
6:53 PM 39.2 °F - 33.8 °F 81% 30.00 in 10.0 mi Calm Calm - N/A   Overcast
7:14 PM 37.4 °F 34.9 °F 33.8 °F 87% 30.01 in 10.0 mi NNW 3.5 mph - N/A   Overcast
7:33 PM 37.4 °F 33.8 °F 32.0 °F 81% 30.01 in 10.0 mi NNW 4.6 mph - N/A   Overcast
7:53 PM 37.4 °F - 30.2 °F 75% 30.02 in 10.0 mi Calm Calm - N/A   Overcast
8:13 PM 37.4 °F 34.9 °F 30.2 °F 75% 30.03 in 10.0 mi North 3.5 mph - N/A   Overcast
8:33 PM 35.6 °F - 30.2 °F 81% 30.04 in 10.0 mi Calm Calm - N/A   Overcast
8:53 PM 35.6 °F - 30.2 °F 81% 30.05 in 10.0 mi Calm Calm - N/A   Overcast
9:14 PM 35.6 °F - 30.2 °F 81% 30.05 in 10.0 mi Calm Calm - N/A   Overcast
9:33 PM 33.8 °F - 30.2 °F 87% 30.05 in 10.0 mi Calm Calm - N/A   Overcast
9:53 PM 33.8 °F - 30.2 °F 87% 30.06 in 10.0 mi Calm Calm - N/A   Light Drizzle
10:13 PM 33.8 °F 30.8 °F 30.2 °F 87% 30.07 in 10.0 mi North 3.5 mph - N/A   Mostly Cloudy
10:33 PM 33.8 °F - 28.4 °F 81% 30.07 in 10.0 mi Calm Calm - N/A   Overcast
10:53 PM 33.8 °F - 28.4 °F 81% 30.07 in 10.0 mi Calm Calm - N/A   Overcast
11:13 PM 33.8 °F - 28.4 °F 81% 30.08 in 10.0 mi Calm Calm - N/A   Overcast
11:33 PM 33.8 °F - 26.6 °F 75% 30.08 in 10.0 mi Calm Calm - N/A   Overcast
11:53 PM 33.8 °F - 26.6 °F 75% 30.09 in 10.0 mi Calm Calm - N/A   Overcast